Flag for Germany Weather past 2 weeks in Hamm, North Rhine-Westphalia, Germany

Now
52 °F

Passing clouds.


Feels Like: 47 °F
Forecast: 40 / 44 °F
Wind: 16 mph from Southwest

Location: Muenster / Osnabrueck

Current Time: Dec 19, 2014 at 3:45:25 AM

Latest Report: Dec 19, 2014 at 3:20 AM


Visibility: 4 mi

Pressure: 29.80 "Hg

Humidity: 100%

Dew point: 52 °F

Location of HammLocation

Historic Weather in Hamm — Graph

°F

Hamm temperature yesterday

Maximum temperature yesterday: 55 °F (at 6:20 PM)
Minimum temperature yesterday: 48 °F (at 12:20 AM)
Average temperature yesterday: 52 °F

Past Weeks' High & Low Weather Summary

 TemperatureHumidityPressure
High55 °F (Dec 18, 6:20 PM)100% (Dec 5, 12:20 AM)30.36 "Hg (Dec 5, 12:20 AM)
Low28 °F (Dec 4, 2:20 AM)70% (Dec 10, 4:50 AM)29.33 "Hg (Dec 12, 12:50 PM)
Average41 °F90%29.91 "Hg
* Reported Dec 4 2:20 AM — Dec 19 2:50 AM, Hamm, Weather by CustomWeather, © 2014

Note: Actual official high and low records may vary slightly from our data, if they occured in-between our weather recording intervals... More about our weather records

Advertising

Hamm weather history for previous 24 hours

 ConditionsComfort  
Time TempWeatherWind HumidityBarometerVisibility
2:50 AM
Dec 19
54 °FPassing clouds.17 mph94%29.80 "Hg4 mi
2:20 AM54 °FPassing clouds.17 mph94%29.80 "Hg4 mi
1:50 AM54 °FPassing clouds.17 mph94%29.80 "Hg4 mi
1:20 AM54 °FPassing clouds.18 mph94%29.80 "Hg4 mi
12:50 AM54 °FPassing clouds.18 mph94%29.80 "Hg4 mi
12:20 AM54 °FDrizzle. Fog.20 mph94%29.80 "Hg3 mi
11:50 PM
Dec 18
54 °FDrizzle. Fog.20 mph94%29.77 "Hg3 mi
11:20 PM54 °FDrizzle. Fog.16 mph94%29.80 "Hg3 mi
10:50 PM54 °FDrizzle. Fog.16 mph100%29.80 "Hg3 mi
10:20 PM54 °FDrizzle. Fog.15 mph94%29.80 "Hg3 mi
9:50 PM54 °FDrizzle. Fog.16 mph94%29.77 "Hg3 mi
9:20 PM54 °FDrizzle. Fog.17 mph94%29.80 "Hg3 mi
8:50 PM54 °FDrizzle. Fog.18 mph94%29.77 "Hg3 mi
8:20 PM54 °FDrizzle. Fog.22 mph94%29.77 "Hg2 mi
7:50 PM54 °FDrizzle. Fog.18 mph94%29.77 "Hg2 mi
7:20 PM54 °FDrizzle. Fog.22 mph94%29.77 "Hg2 mi
6:50 PM54 °FLight rain. Partly cloudy.17 mph100%29.77 "Hg4 mi
6:20 PM55 °FLight rain. Passing clouds.18 mph94%29.77 "Hg5 mi
5:50 PM54 °FDrizzle. Fog.16 mph100%29.77 "Hg3 mi
5:20 PM54 °FDrizzle. Fog.17 mph94%29.74 "Hg3 mi
4:20 PM54 °FDrizzle. Fog.14 mph100%29.74 "Hg2 mi
3:50 PM54 °FFog.15 mph94%29.74 "Hg3 mi
3:20 PM54 °FDrizzle. Fog.14 mph100%29.74 "Hg2 mi
2:50 PM54 °FDrizzle. Fog.13 mph100%29.74 "Hg2 mi
2:20 PM54 °FDrizzle. Fog.13 mph100%29.74 "Hg2 mi
1:50 PM52 °FDrizzle. Fog.13 mph100%29.74 "Hg2 mi
1:20 PM52 °FDrizzle. Fog.10 mph100%29.77 "Hg2 mi
12:50 PM52 °FDrizzle. More clouds than sun.10 mph100%29.77 "Hg4 mi
12:20 PM52 °FDrizzle. Fog.10 mph100%29.77 "Hg3 mi
11:50 AM52 °FDrizzle. Broken clouds.10 mph100%29.77 "Hg4 mi
11:20 AM52 °FDrizzle. Broken clouds.10 mph100%29.77 "Hg4 mi
10:50 AM52 °FDrizzle. Broken clouds.8 mph100%29.80 "Hg4 mi
10:20 AM52 °FDrizzle. Broken clouds.9 mph100%29.80 "Hg4 mi
9:50 AM52 °FDrizzle. Broken clouds.9 mph100%29.80 "Hg4 mi
9:20 AM52 °FBroken clouds.12 mph94%29.77 "Hg4 mi
8:50 AM52 °FFog.10 mph100%29.77 "Hg3 mi
8:20 AM50 °FDrizzle. Fog.10 mph100%29.77 "Hg3 mi
7:50 AM50 °FDrizzle. Fog.7 mph100%29.77 "Hg2 mi
7:20 AM50 °FFog.8 mph100%29.77 "Hg2 mi
6:50 AM50 °FFog.8 mph100%29.77 "Hg3 mi
6:20 AM50 °FFog.8 mph100%29.77 "Hg3 mi
5:50 AM50 °FDrizzle. Fog.9 mph100%29.77 "Hg2 mi
5:20 AM50 °FFog.9 mph100%29.77 "Hg3 mi
4:20 AM50 °FPassing clouds.9 mph94%29.77 "Hg4 mi
3:50 AM50 °FPassing clouds.7 mph94%29.77 "Hg4 mi
3:20 AM50 °FPassing clouds.8 mph94%29.77 "Hg4 mi
Weather by CustomWeather, © 2014

See weather overviewHow to use our weather pages